Weather History for Stuart, FL

Change the Weather History Date:

Friday, February 14, 2014

  Actual Average Record
Temperature  
Mean Temperature 55 °F -  
Max Temperature 66 °F 74 °F 66 °F (2014)
Min Temperature 44 °F 53 °F 44 °F (2014)
Degree Days  
Heating Degree Days 10    
Growing Degree Days 5 (Base 50)    
Moisture  
Dew Point 42 °F    
Average Humidity 69    
Maximum Humidity 87    
Minimum Humidity 37    
Precipitation  
Precipitation 0.00 in - - ()
Sea Level Pressure  
Sea Level Pressure 30.02 in    
Wind  
Wind Speed 6 mph (NW)    
Max Wind Speed 10 mph    
Max Gust Speed 18 mph    
Visibility 10 miles    
Events      
Averages and records for this station are not official NWS values.
T = Trace of Precipitation, MM = Missing Value Source: NWS Daily Summary

Daily Weather History Graph

Daily Weather History Graph

Search for Another Location

Airport:

Trip Planner

Search our weather history database for the weather conditions in past years. The results will help you decide how hot, cold, wet, or windy it might be!

Date:

Astronomy

Feb. 14, 2014 Rise Set
Actual Time 6:58 AM EST 6:12 PM EST
Civil Twilight 6:34 AM EST 6:35 PM EST
Nautical Twilight 6:07 AM EST 7:03 PM EST
Astronomical Twilight 5:39 AM EST 7:30 PM EST
Moon 6:09 PM EST (2/14) 6:27 AM EST (2/14)
Length of Visible Light 12h 01m
Length of Day
11h 13m
Full, 100% of the Moon is Illuminated
Feb 14
Full
Feb 14
Full
Feb 22
Last Quarter
Mar 1
New
Mar 8
First Quarter

Hourly Weather History & Observations

Time (EST) Temp. Windchill Dew Point Humidity Pressure Visibility Wind Dir Wind Speed Gust Speed Precip Events Conditions
12:15 AM 50.0 °F - 44.6 °F 82% 29.99 in 10.0 mi WNW 6.9 mph - N/A   Clear
12:35 AM 50.0 °F - 44.6 °F 82% 29.99 in 10.0 mi WNW 5.8 mph - N/A   Clear
12:55 AM 50.0 °F - 44.6 °F 82% 30.00 in 10.0 mi WNW 8.1 mph - N/A   Clear
1:15 AM 50.0 °F - 42.8 °F 76% 30.00 in 10.0 mi NW 9.2 mph - N/A   Clear
1:35 AM 50.0 °F - 42.8 °F 76% 30.00 in 10.0 mi WNW 10.4 mph - N/A   Clear
1:55 AM 50.0 °F - 42.8 °F 76% 29.99 in 10.0 mi NW 9.2 mph 18.4 mph N/A   Clear
2:15 AM 48.2 °F - 41.0 °F 76% 30.00 in 10.0 mi NW 6.9 mph 16.1 mph N/A   Clear
2:35 AM 46.4 °F 42.4 °F 41.0 °F 81% 29.99 in 10.0 mi NW 8.1 mph - N/A   Clear
2:55 AM 46.4 °F 42.9 °F 41.0 °F 81% 29.99 in 10.0 mi NW 6.9 mph - N/A   Clear
3:15 AM 46.4 °F 42.9 °F 41.0 °F 81% 29.99 in 10.0 mi NW 6.9 mph - N/A   Clear
3:35 AM 46.4 °F 41.9 °F 41.0 °F 81% 30.00 in 10.0 mi NNW 9.2 mph - N/A   Clear
3:55 AM 46.4 °F 42.4 °F 41.0 °F 81% 29.99 in 10.0 mi NW 8.1 mph - N/A   Clear
4:15 AM 46.4 °F 42.9 °F 41.0 °F 81% 30.00 in 10.0 mi NNW 6.9 mph - N/A   Clear
4:35 AM 44.6 °F 40.7 °F 41.0 °F 87% 30.00 in 10.0 mi NW 6.9 mph - N/A   Clear
4:55 AM 44.6 °F 41.4 °F 41.0 °F 87% 30.01 in 10.0 mi NW 5.8 mph - N/A   Clear
5:15 AM 44.6 °F 42.2 °F 39.2 °F 81% 30.01 in 10.0 mi NW 4.6 mph - N/A   Clear
5:35 AM 44.6 °F 41.4 °F 39.2 °F 81% 30.02 in 10.0 mi NW 5.8 mph - N/A   Clear
5:55 AM 44.6 °F 40.7 °F 39.2 °F 81% 30.02 in 10.0 mi NW 6.9 mph - N/A   Clear
6:15 AM 44.6 °F 42.2 °F 39.2 °F 81% 30.04 in 10.0 mi WNW 4.6 mph - N/A   Clear
6:47 AM 44.6 °F 40.7 °F 41.0 °F 87% 30.05 in 10.0 mi WNW 6.9 mph - N/A   Partly Cloudy
7:47 AM 46.4 °F 44.3 °F 41.0 °F 81% 30.06 in 10.0 mi NW 4.6 mph - N/A   Partly Cloudy
8:47 AM 50.0 °F - 41.0 °F 71% 30.08 in 10.0 mi WNW 6.9 mph - N/A   Partly Cloudy
9:47 AM 55.4 °F - 42.8 °F 63% 30.10 in 10.0 mi WNW 9.2 mph - N/A   Partly Cloudy
10:47 AM 59.0 °F - 41.0 °F 51% 30.11 in 10.0 mi NNW 5.8 mph - N/A   Partly Cloudy
11:50 AM 62.6 °F - 41.0 °F 45% 30.08 in 10.0 mi North 5.8 mph - N/A   Clear
12:47 PM 62.6 °F - 39.2 °F 42% 30.08 in 10.0 mi East 5.8 mph - N/A   Clear
1:55 PM 64.4 °F - 39.2 °F 40% 30.02 in 10.0 mi NE 3.5 mph - N/A   Partly Cloudy
2:47 PM 66.2 °F - 39.2 °F 37% 30.00 in 10.0 mi ENE 5.8 mph - N/A   Partly Cloudy
3:47 PM 66.2 °F - 44.6 °F 46% 29.98 in 10.0 mi East 6.9 mph - N/A   Partly Cloudy
4:47 PM 66.2 °F - 44.6 °F 46% 29.98 in 10.0 mi ESE 5.8 mph - N/A   Partly Cloudy
5:47 PM 64.4 °F - 50.0 °F 59% 29.99 in 10.0 mi SE 6.9 mph - N/A   Partly Cloudy
6:47 PM 62.6 °F - 50.0 °F 63% 29.99 in 7.0 mi SSE 5.8 mph - N/A   Scattered Clouds
8:15 PM 55.4 °F - 39.2 °F 54% 30.02 in 10.0 mi Calm Calm - N/A   Clear
8:35 PM 55.4 °F - 41.0 °F 58% 30.02 in 10.0 mi Calm Calm - N/A   Clear
8:55 PM 55.4 °F - 37.4 °F 51% 30.02 in 10.0 mi Calm Calm - N/A   Clear
9:15 PM 55.4 °F - 41.0 °F 58% 30.02 in 10.0 mi Calm Calm - N/A   Clear
9:35 PM 53.6 °F - 44.6 °F 72% 30.01 in 10.0 mi Calm Calm - N/A   Clear
9:55 PM 51.8 °F - 44.6 °F 76% 30.02 in 10.0 mi Calm Calm - N/A   Clear
10:15 PM 53.6 °F - 44.6 °F 72% 30.02 in 10.0 mi Calm Calm - N/A   Clear
10:35 PM 53.6 °F - 44.6 °F 72% 30.02 in 10.0 mi Calm Calm - N/A   Clear
10:55 PM 55.4 °F - 44.6 °F 67% 30.01 in 10.0 mi SW 3.5 mph - N/A   Clear
11:15 PM 53.6 °F - 44.6 °F 72% 30.02 in 10.0 mi West 9.2 mph - N/A   Clear
11:35 PM 55.4 °F - 42.8 °F 63% 30.02 in 10.0 mi West 8.1 mph - N/A   Clear
11:55 PM 53.6 °F - 44.6 °F 72% 30.01 in 10.0 mi West 6.9 mph - N/A   Clear